TimeEST,TemperatureF,Dew PointF,Humidity,Sea Level PressureIn,VisibilityMPH,Wind Direction,Wind SpeedMPH,Gust SpeedMPH,PrecipitationIn,Events,Conditions,WindDirDegrees,DateUTC
12:00 AM,73.4,68.0,83,30.12,6.2,East,13.8,-,N/A,,Partly Cloudy,90,2013-12-14 05:00:00
1:00 AM,74,70,84,30.13,9,East,4.6,,,,Partly Cloudy,90,2013-12-14 06:00:00
1:00 AM,73.4,69.8,88,30.12,6.2,East,8.1,-,N/A,,Scattered Clouds,90,2013-12-14 06:00:00
2:00 AM,73.4,68.0,83,30.10,6.2,East,6.9,-,N/A,,Scattered Clouds,90,2013-12-14 07:00:00
4:00 AM,73,70,86,30.09,9,East,5.8,,,,Scattered Clouds,90,2013-12-14 09:00:00
4:00 AM,73.4,69.8,88,30.08,6.2,East,5.8,-,N/A,,Partly Cloudy,90,2013-12-14 09:00:00
5:00 AM,73.4,68.0,83,30.08,6.2,East,3.5,-,N/A,,Partly Cloudy,90,2013-12-14 10:00:00
6:00 AM,73.4,69.8,88,30.08,6.2,East,3.5,-,N/A,,Partly Cloudy,90,2013-12-14 11:00:00
7:00 AM,73,73,99,30.09,9,East,3.5,,,Rain,Light Rain Showers,90,2013-12-14 12:00:00
7:00 AM,73.4,73.4,100,30.09,6.2,East,3.5,-,N/A,,Partly Cloudy,90,2013-12-14 12:00:00
8:00 AM,75.2,71.6,89,30.10,6.2,East,6.9,-,N/A,,Scattered Clouds,90,2013-12-14 13:00:00
9:00 AM,77.0,71.6,83,30.11,6.2,East,6.9,-,N/A,,Partly Cloudy,80,2013-12-14 14:00:00
10:00 AM,81,72,66,30.12,8,East,11.5,,,,Scattered Clouds,100,2013-12-14 15:00:00
10:00 AM,80.6,71.6,74,30.11,6.2,East,11.5,-,N/A,,Partly Cloudy,100,2013-12-14 15:00:00
11:00 AM,80.6,69.8,70,30.14,6.2,ESE,16.1,-,N/A,,Scattered Clouds,120,2013-12-14 16:00:00
1:00 PM,80.6,73.4,79,30.05,6.2,ESE,11.5,-,N/A,,Scattered Clouds,120,2013-12-14 18:00:00
2:00 PM,80.6,69.8,70,30.02,6.2,ESE,13.8,-,N/A,,Scattered Clouds,120,2013-12-14 19:00:00
3:00 PM,80.6,69.8,70,30.02,6.2,ESE,12.7,-,N/A,,Mostly Cloudy,110,2013-12-14 20:00:00
4:00 PM,81,72,66,30.02,8,ESE,11.5,,,,Mostly Cloudy,110,2013-12-14 21:00:00
4:00 PM,80.6,71.6,74,30.02,6.2,ESE,11.5,-,N/A,,Mostly Cloudy,110,2013-12-14 21:00:00
5:00 PM,78.8,71.6,78,30.02,6.2,SE,8.1,-,N/A,,Partly Cloudy,130,2013-12-14 22:00:00
6:00 PM,77.0,71.6,83,30.03,6.2,SE,6.9,-,N/A,,Partly Cloudy,140,2013-12-14 23:00:00
7:00 PM,77.0,73.4,89,30.04,6.2,SE,4.6,-,N/A,,Scattered Clouds,130,2013-12-15 00:00:00
8:00 PM,77.0,71.6,83,30.05,6.2,SSE,4.6,-,N/A,,Partly Cloudy,150,2013-12-15 01:00:00
9:00 PM,77.0,71.6,83,30.06,6.2,SE,2.3,-,N/A,,Partly Cloudy,130,2013-12-15 02:00:00
10:00 PM,76,75,94,30.06,8,SE,2.3,,,,Scattered Clouds,140,2013-12-15 03:00:00
10:00 PM,77.0,75.2,94,30.06,6.2,SE,2.3,-,N/A,,Partly Cloudy,140,2013-12-15 03:00:00
11:00 PM,75.2,71.6,89,30.06,6.2,Variable,2.3,-,N/A,,Partly Cloudy,0,2013-12-15 04:00:00